map of KTM home
Great Circle Mapper logo
KTM - Airport
Location
City:  Kathmandu, Nepal
Name:Tribhuvan International Airport
Old (Alt.):Gauchar Airport
ICAO / IATA:VNKT / KTM

Details
Type:Airport (Aerodrome, Airfield)
Use:Public/Civil, International (customs port of entry)
Latitude:27°41'48"N (27.696583)
Longitude:85°21'33"E (85.359100)
Datum:WGS 1984
Elevation:4390 ft (1338 m)
Runways:1
Longest:10007 × 148 ft (3050 × 45 m), paved

Time
Time Zone:UTC+5:45
Local Time:

Weather
METAR:VNKT 250050Z 11003KT 6000 FEW020 SCT250 13/12 Q1020 NOSIG
TAF:VNKT 240300Z 2406/2506 19008KT FEW025
BECMG 2407/2409 24008KT 9999 FEW025 SCT100
BECMG 2413/2414 00000KT 7000 FEW020
TEMPO 2500/2502 2500 BR FEW015
BECMG 2503/2504 5000 BR FEW020
BECMG 2505/2506 19005KT 7000 FEW025

Related Locations
Nearby:
Farthest:SCFX: 11544 mi / 18579 km
Isla San Félix, Desventuradas Islands, VS, CL

Find:

   beyond  
but within

Other Information
Maps:
NOTAMs:
Links:
Sources:

  
flag of Nepal   

Sectional Chart

Flight Planning
at skyvector.com

Satellite Image

Google Maps Satellite View

 

Copyright © 2004-2014 Karl L. Swartz. All rights reserved.
The Great Circle Mapper name and logo are trademarks of the Great Circle Mapper.
All other trademarks mentioned herein belong to their respective owners.
Please see credits for attibutions and further copyright information.

  Follow gcmap on Facebook Follow gcmap on Twitter

hCard Microformat

Geo Microformat